DLH785 ENBR-EDDS

Flight info

Callsign DLH785
Flight time N/A
Altitude 37000
Route TUXIL DCT ZOL L621 AAL DCT ALASA DCT ELNAT DCT SILWE DCT OSBIT P605 TOSTU T726 LBU
Aircraft A320/M-SDE3FGHIRWY/LB1

Departure

Time 2026-05-07 13:58
Airport Bergen Airport, Flesland (ENBR)

Arrival

Time N/A
Airport Stuttgart Airport (EDDS)
Time Latitude Longitude Altitude Speed Heading
2026-05-07 13:56 60.29715 5.21863 158 ft 6 kts 265°
2026-05-07 13:56 60.29710 5.21745 159 ft 11 kts 264°
2026-05-07 13:56 60.29670 5.21708 158 ft 0 kts 171°
2026-05-07 13:56 60.29669 5.21708 158 ft 0 kts 171°
2026-05-07 13:57 60.29667 5.21709 158 ft 0 kts 171°
2026-05-07 13:57 60.29663 5.21710 158 ft 10 kts 171°
2026-05-07 13:58 60.29204 5.21858 154 ft 125 kts 169°
2026-05-07 13:58 60.28082 5.22245 636 ft 181 kts 173°
2026-05-07 13:58 60.26768 5.22648 1789 ft 202 kts 172°
2026-05-07 13:58 60.25301 5.23039 2814 ft 222 kts 172°
2026-05-07 13:59 60.23682 5.23541 3684 ft 247 kts 170°
2026-05-07 13:59 60.21964 5.24134 4981 ft 254 kts 170°
2026-05-07 13:59 60.20208 5.24757 6314 ft 256 kts 171°
2026-05-07 13:59 60.18425 5.25394 7393 ft 264 kts 171°
2026-05-07 14:00 60.16596 5.26025 8691 ft 266 kts 172°
2026-05-07 14:00 60.14773 5.26590 10182 ft 263 kts 174°
2026-05-07 14:00 60.12951 5.27112 11195 ft 273 kts 174°
2026-05-07 14:00 60.10993 5.27752 11675 ft 297 kts 173°
2026-05-07 14:01 60.08871 5.28482 12128 ft 320 kts 174°
2026-05-07 14:01 60.06628 5.29192 12873 ft 331 kts 175°
2026-05-07 14:01 60.04328 5.29861 13764 ft 337 kts 176°
2026-05-07 14:01 60.01992 5.30497 14561 ft 342 kts 176°
2026-05-07 14:02 59.99598 5.31122 15270 ft 350 kts 177°
2026-05-07 14:02 59.97160 5.31754 16047 ft 356 kts 177°
2026-05-07 14:02 59.94680 5.32402 16837 ft 361 kts 177°
2026-05-07 14:02 59.92171 5.33065 17640 ft 367 kts 177°
2026-05-07 14:03 59.89625 5.33739 18426 ft 372 kts 178°
2026-05-07 14:03 59.87043 5.34423 18924 ft 376 kts 178°
2026-05-07 14:03 59.84460 5.35108 19440 ft 380 kts 178°
2026-05-07 14:03 59.81828 5.35805 20181 ft 384 kts 178°
2026-05-07 14:04 59.79162 5.36491 20872 ft 388 kts 179°
2026-05-07 14:04 59.76467 5.37048 21565 ft 391 kts 181°
2026-05-07 14:04 59.73743 5.37494 22248 ft 395 kts 182°
2026-05-07 14:04 59.70985 5.37890 22910 ft 399 kts 182°
2026-05-07 14:05 59.68200 5.38285 23556 ft 404 kts 182°
2026-05-07 14:05 59.65379 5.38700 24099 ft 408 kts 182°
2026-05-07 14:05 59.62534 5.39206 24641 ft 413 kts 180°
2026-05-07 14:05 59.59657 5.39873 25147 ft 418 kts 179°
2026-05-07 14:06 59.56764 5.40647 25643 ft 422 kts 179°
2026-05-07 14:06 59.53847 5.41471 26135 ft 425 kts 179°
2026-05-07 14:06 59.50906 5.42293 26622 ft 428 kts 179°
2026-05-07 14:06 59.47939 5.43090 27058 ft 432 kts 179°
2026-05-07 14:07 59.44951 5.43860 27533 ft 434 kts 179°
2026-05-07 14:07 59.41979 5.44602 27984 ft 437 kts 179°
2026-05-07 14:07 59.38910 5.45394 28442 ft 442 kts 178°
2026-05-07 14:07 59.35903 5.46340 28871 ft 446 kts 176°
2026-05-07 14:08 59.32835 5.47454 29292 ft 450 kts 175°
2026-05-07 14:08 59.29751 5.48653 29716 ft 453 kts 175°
2026-05-07 14:08 59.26652 5.49880 30118 ft 456 kts 175°
2026-05-07 14:08 59.23528 5.51096 30446 ft 458 kts 175°
2026-05-07 14:09 59.20395 5.52277 30764 ft 460 kts 176°
2026-05-07 14:09 59.17241 5.53425 31057 ft 461 kts 175°
2026-05-07 14:09 59.14076 5.54551 31360 ft 463 kts 175°
2026-05-07 14:09 59.10903 5.55669 31643 ft 464 kts 175°
2026-05-07 14:10 59.07723 5.56795 31998 ft 464 kts 175°
2026-05-07 14:10 59.01384 5.59058 32110 ft 463 kts 175°
2026-05-07 14:11 58.95050 5.61346 32100 ft 464 kts 173°
2026-05-07 14:11 58.89005 5.66124 32124 ft 478 kts 152°
2026-05-07 14:11 58.86360 5.70091 32140 ft 484 kts 140°
2026-05-07 14:12 58.84115 5.74969 32138 ft 489 kts 129°
2026-05-07 14:12 58.80493 5.86145 32131 ft 491 kts 124°
2026-05-07 14:13 58.76912 5.97362 32122 ft 491 kts 124°
2026-05-07 14:13 58.73312 6.08562 32112 ft 491 kts 124°
2026-05-07 14:14 58.69703 6.19729 32104 ft 491 kts 124°
2026-05-07 14:14 58.66087 6.30881 32095 ft 491 kts 124°
2026-05-07 14:15 58.62462 6.42015 32105 ft 492 kts 124°
2026-05-07 14:15 58.59437 6.51257 32104 ft 492 kts 124°
2026-05-07 14:16 58.55174 6.64232 32100 ft 492 kts 124°
2026-05-07 14:16 58.51542 6.75248 32102 ft 492 kts 124°
2026-05-07 14:17 58.47886 6.86306 32103 ft 492 kts 124°
2026-05-07 14:17 58.44266 6.97419 32100 ft 493 kts 124°
2026-05-07 14:18 58.41272 7.06664 32106 ft 493 kts 124°
2026-05-07 14:18 58.37623 7.17831 32108 ft 493 kts 124°
2026-05-07 14:19 58.34004 7.28806 32103 ft 493 kts 124°
2026-05-07 14:19 58.30354 7.39822 32108 ft 493 kts 124°
2026-05-07 14:20 58.26689 7.50830 32116 ft 492 kts 124°
2026-05-07 14:20 58.23028 7.61786 32130 ft 490 kts 124°
2026-05-07 14:21 58.19378 7.72668 32132 ft 489 kts 124°
2026-05-07 14:21 58.15542 7.83268 32135 ft 486 kts 133°
2026-05-07 14:22 58.10204 7.94260 32136 ft 485 kts 135°
2026-05-07 14:22 58.06397 8.02047 32135 ft 485 kts 135°
2026-05-07 14:23 58.01814 8.11414 32136 ft 486 kts 135°
2026-05-07 14:23 57.97223 8.20768 32137 ft 486 kts 135°
2026-05-07 14:24 57.92624 8.30070 32115 ft 485 kts 135°
2026-05-07 14:24 57.88027 8.39316 32146 ft 483 kts 135°
2026-05-07 14:25 57.83437 8.48520 32143 ft 483 kts 135°
2026-05-07 14:25 57.78842 8.57705 32126 ft 483 kts 135°
2026-05-07 14:26 57.74243 8.66887 32136 ft 483 kts 135°
2026-05-07 14:26 57.69641 8.76023 32122 ft 483 kts 135°
2026-05-07 14:27 57.65062 8.85202 32129 ft 483 kts 134°
2026-05-07 14:27 57.60643 8.94657 32108 ft 483 kts 132°
2026-05-07 14:28 57.56286 9.04154 32126 ft 481 kts 132°
2026-05-07 14:28 57.51903 9.13519 32134 ft 480 kts 133°
2026-05-07 14:29 57.47480 9.22810 32124 ft 480 kts 133°
2026-05-07 14:29 57.43079 9.32014 32122 ft 480 kts 133°
2026-05-07 14:30 57.38648 9.41267 32125 ft 480 kts 133°
2026-05-07 14:30 57.34217 9.50496 32118 ft 479 kts 133°
2026-05-07 14:31 57.29781 9.59720 32116 ft 480 kts 133°
2026-05-07 14:31 57.25346 9.68896 32114 ft 476 kts 133°
2026-05-07 14:32 57.20932 9.77982 32111 ft 475 kts 133°
2026-05-07 14:32 57.16507 9.87033 32112 ft 475 kts 133°
2026-05-07 14:33 57.11445 9.94690 32110 ft 471 kts 152°
2026-05-07 14:33 57.05355 9.98789 32111 ft 465 kts 172°
2026-05-07 14:34 56.98941 9.99369 32111 ft 461 kts 183°
2026-05-07 14:34 56.92523 9.99270 32109 ft 461 kts 182°
2026-05-07 14:35 56.87188 9.99196 32106 ft 461 kts 182°